Time,TemperatureF,DewpointF,PressureIn,WindDirection,WindDirectionDegrees,WindSpeedMPH,WindSpeedGustMPH,Humidity,HourlyPrecipIn,Conditions,Clouds,dailyrainin,SolarRadiationWatts/m^2,SoftwareType,DateUTC
2013-09-08 00:12:00,76.6,72.0,29.93,NNE,22,0.0,-999.0,86,-99.99,,,0.00,0,weatherlink.com 1.10,2013-09-08 04:12:00,
2013-09-08 00:27:00,76.4,72.0,29.92,NNE,22,0.0,-999.0,87,-99.99,,,0.00,0,weatherlink.com 1.10,2013-09-08 04:27:00,
2013-09-08 00:42:00,76.2,72.0,29.92,NNE,22,0.0,-999.0,87,-99.99,,,0.00,0,weatherlink.com 1.10,2013-09-08 04:42:00,
2013-09-08 00:57:00,76.1,71.0,29.92,NNE,22,0.0,-999.0,85,-99.99,,,0.00,0,weatherlink.com 1.10,2013-09-08 04:57:00,
2013-09-08 01:12:00,76.3,72.0,29.92,NNE,22,0.0,-999.0,85,-99.99,,,0.00,0,weatherlink.com 1.10,2013-09-08 05:12:00,
2013-09-08 01:27:00,76.2,71.0,29.92,NNE,22,0.0,-999.0,85,-99.99,,,0.00,0,weatherlink.com 1.10,2013-09-08 05:27:00,
2013-09-08 01:42:00,76.2,71.0,29.93,NNE,22,0.0,-999.0,85,-99.99,,,0.00,0,weatherlink.com 1.10,2013-09-08 05:42:00,
2013-09-08 01:57:00,76.2,72.0,29.93,NNE,22,0.0,-999.0,86,-99.99,,,0.00,0,weatherlink.com 1.10,2013-09-08 05:57:00,
2013-09-08 02:12:00,76.5,72.0,29.92,NE,55,0.0,-999.0,86,-99.99,,,0.00,0,weatherlink.com 1.10,2013-09-08 06:12:00,
2013-09-08 02:27:00,76.5,72.0,29.91,NE,55,0.0,-999.0,86,-99.99,,,0.00,0,weatherlink.com 1.10,2013-09-08 06:27:00,
2013-09-08 02:42:00,76.2,72.0,29.91,NE,55,0.0,-999.0,86,-99.99,,,0.00,0,weatherlink.com 1.10,2013-09-08 06:42:00,
2013-09-08 02:57:00,76.1,72.0,29.90,NE,55,0.0,-999.0,87,-99.99,,,0.00,0,weatherlink.com 1.10,2013-09-08 06:57:00,
2013-09-08 03:12:00,76.0,72.0,29.89,NE,55,0.0,-999.0,87,-99.99,,,0.00,0,weatherlink.com 1.10,2013-09-08 07:12:00,
2013-09-08 03:27:00,75.7,72.0,29.89,NE,54,0.0,-999.0,88,-99.99,,,0.00,0,weatherlink.com 1.10,2013-09-08 07:27:00,
2013-09-08 03:43:00,75.4,72.0,29.89,NE,55,0.0,-999.0,88,-99.99,,,0.00,0,weatherlink.com 1.10,2013-09-08 07:43:00,
2013-09-08 03:57:00,75.2,72.0,29.88,NE,55,0.0,-999.0,89,-99.99,,,0.00,0,weatherlink.com 1.10,2013-09-08 07:57:00,
2013-09-08 04:27:00,74.9,72.0,29.88,NE,55,0.0,-999.0,90,-99.99,,,0.00,0,weatherlink.com 1.10,2013-09-08 08:27:00,
2013-09-08 04:42:00,74.8,72.0,29.89,NE,54,0.0,-999.0,90,-99.99,,,0.00,0,weatherlink.com 1.10,2013-09-08 08:42:00,
2013-09-08 04:57:00,74.6,72.0,29.89,NE,55,0.0,-999.0,91,-99.99,,,0.00,0,weatherlink.com 1.10,2013-09-08 08:57:00,
2013-09-08 05:12:00,74.5,72.0,29.89,NE,55,0.0,-999.0,91,-99.99,,,0.00,0,weatherlink.com 1.10,2013-09-08 09:12:00,
2013-09-08 05:27:00,74.4,72.0,29.89,NE,54,0.0,-999.0,91,-99.99,,,0.00,0,weatherlink.com 1.10,2013-09-08 09:27:00,
2013-09-08 05:42:00,74.2,72.0,29.89,NE,54,0.0,-999.0,91,-99.99,,,0.00,0,weatherlink.com 1.10,2013-09-08 09:42:00,
2013-09-08 05:57:00,74.1,72.0,29.89,NE,55,0.0,-999.0,92,-99.99,,,0.00,0,weatherlink.com 1.10,2013-09-08 09:57:00,
2013-09-08 06:12:00,74.0,72.0,29.89,NE,55,0.0,-999.0,92,-99.99,,,0.00,0,weatherlink.com 1.10,2013-09-08 10:12:00,
2013-09-08 06:27:00,73.9,72.0,29.90,NE,54,0.0,-999.0,92,-99.99,,,0.00,0,weatherlink.com 1.10,2013-09-08 10:27:00,
2013-09-08 06:42:00,73.7,72.0,29.89,NE,55,0.0,-999.0,93,-99.99,,,0.00,0,weatherlink.com 1.10,2013-09-08 10:42:00,
2013-09-08 06:57:00,73.7,72.0,29.90,NE,54,0.0,-999.0,93,-99.99,,,0.00,0,weatherlink.com 1.10,2013-09-08 10:57:00,
2013-09-08 07:12:00,73.6,72.0,29.90,NE,55,0.0,-999.0,93,-99.99,,,0.00,7,weatherlink.com 1.10,2013-09-08 11:12:00,
2013-09-08 07:27:00,73.6,72.0,29.91,NE,55,0.0,-999.0,93,-99.99,,,0.00,26,weatherlink.com 1.10,2013-09-08 11:27:00,
2013-09-08 07:42:00,74.4,73.0,29.91,NE,55,0.0,-999.0,94,-99.99,,,0.00,65,weatherlink.com 1.10,2013-09-08 11:42:00,
2013-09-08 07:57:00,75.2,73.0,29.92,NE,55,0.0,-999.0,94,-99.99,,,0.00,114,weatherlink.com 1.10,2013-09-08 11:57:00,
2013-09-08 08:12:00,76.0,74.0,29.92,NE,55,0.0,-999.0,94,-99.99,,,0.00,160,weatherlink.com 1.10,2013-09-08 12:12:00,
2013-09-08 08:27:00,77.0,75.0,29.92,NE,55,0.0,-999.0,94,-99.99,,,0.00,221,weatherlink.com 1.10,2013-09-08 12:27:00,
2013-09-08 08:42:00,79.3,77.0,29.92,NE,55,0.0,-999.0,91,-99.99,,,0.00,274,weatherlink.com 1.10,2013-09-08 12:42:00,
2013-09-08 08:58:00,80.7,77.0,29.92,NE,54,0.0,-999.0,87,-99.99,,,0.00,223,weatherlink.com 1.10,2013-09-08 12:58:00,
2013-09-08 09:13:00,82.0,77.0,29.92,NE,48,0.0,-999.0,84,-99.99,,,0.00,380,weatherlink.com 1.10,2013-09-08 13:13:00,
2013-09-08 09:28:00,82.9,77.0,29.92,NE,38,0.0,-999.0,82,-99.99,,,0.00,422,weatherlink.com 1.10,2013-09-08 13:28:00,
2013-09-08 09:43:00,83.8,77.0,29.92,NNE,28,0.0,-999.0,80,-99.99,,,0.00,482,weatherlink.com 1.10,2013-09-08 13:43:00,
2013-09-08 09:58:00,84.8,77.0,29.92,NE,51,0.0,-999.0,78,-99.99,,,0.00,504,weatherlink.com 1.10,2013-09-08 13:58:00,
2013-09-08 10:13:00,85.1,76.0,29.93,ENE,59,1.0,-999.0,74,-99.99,,,0.00,575,weatherlink.com 1.10,2013-09-08 14:13:00,
2013-09-08 10:28:00,86.0,76.0,29.93,ENE,75,0.0,-999.0,71,-99.99,,,0.00,596,weatherlink.com 1.10,2013-09-08 14:28:00,
2013-09-08 10:43:00,86.5,74.0,29.93,ENE,60,3.0,-999.0,67,-99.99,,,0.00,677,weatherlink.com 1.10,2013-09-08 14:43:00,
2013-09-08 10:58:00,88.0,75.0,29.93,East,80,1.0,-999.0,65,-99.99,,,0.00,717,weatherlink.com 1.10,2013-09-08 14:58:00,
2013-09-08 11:13:00,87.4,74.0,29.92,ENE,66,4.0,-999.0,65,-99.99,,,0.00,747,weatherlink.com 1.10,2013-09-08 15:13:00,
2013-09-08 11:28:00,88.0,73.0,29.92,ENE,77,0.0,-999.0,61,-99.99,,,0.00,777,weatherlink.com 1.10,2013-09-08 15:28:00,
2013-09-08 11:43:00,88.1,74.0,29.92,ENE,60,2.0,-999.0,63,-99.99,,,0.00,812,weatherlink.com 1.10,2013-09-08 15:43:00,
2013-09-08 11:58:00,89.1,76.0,29.91,ENE,78,5.0,-999.0,66,-99.99,,,0.00,846,weatherlink.com 1.10,2013-09-08 15:58:00,
2013-09-08 12:13:00,88.7,74.0,29.91,NE,55,1.0,-999.0,62,-99.99,,,0.00,874,weatherlink.com 1.10,2013-09-08 16:13:00,
2013-09-08 12:28:00,89.0,78.0,29.90,ENE,68,2.0,-999.0,69,-99.99,,,0.00,886,weatherlink.com 1.10,2013-09-08 16:28:00,
2013-09-08 12:43:00,89.4,77.0,29.91,East,83,5.0,-999.0,67,-99.99,,,0.00,888,weatherlink.com 1.10,2013-09-08 16:43:00,
2013-09-08 12:58:00,89.5,77.0,29.91,SE,136,5.0,-999.0,67,-99.99,,,0.00,918,weatherlink.com 1.10,2013-09-08 16:58:00,
2013-09-08 13:13:00,89.3,77.0,29.91,ESE,119,1.0,-999.0,66,-99.99,,,0.00,93,weatherlink.com 1.10,2013-09-08 17:13:00,
2013-09-08 13:28:00,87.7,76.0,29.91,ENE,67,2.0,-999.0,69,-99.99,,,0.00,123,weatherlink.com 1.10,2013-09-08 17:28:00,
2013-09-08 13:43:00,86.1,78.0,29.89,ESE,120,0.0,-999.0,76,-99.99,,,0.01,243,weatherlink.com 1.10,2013-09-08 17:43:00,
2013-09-08 13:58:00,83.8,77.0,29.89,ESE,106,0.0,-999.0,80,-99.99,,,0.01,364,weatherlink.com 1.10,2013-09-08 17:58:00,
2013-09-08 14:14:00,84.7,77.0,29.88,East,95,2.0,-999.0,78,-99.99,,,0.01,969,weatherlink.com 1.10,2013-09-08 18:14:00,
2013-09-08 14:29:00,85.6,76.0,29.89,ESE,106,2.0,-999.0,72,-99.99,,,0.01,1023,weatherlink.com 1.10,2013-09-08 18:29:00,
2013-09-08 14:44:00,87.3,75.0,29.88,ESE,121,0.0,-999.0,67,-99.99,,,0.01,244,weatherlink.com 1.10,2013-09-08 18:44:00,
2013-09-08 14:59:00,86.5,73.0,29.87,ENE,74,2.0,-999.0,64,-99.99,,,0.01,258,weatherlink.com 1.10,2013-09-08 18:59:00,
2013-09-08 15:14:00,85.9,71.0,29.87,ENE,78,3.0,-999.0,62,-99.99,,,0.01,255,weatherlink.com 1.10,2013-09-08 19:14:00,
2013-09-08 15:29:00,85.6,73.0,29.87,ENE,65,0.0,-999.0,65,-99.99,,,0.01,381,weatherlink.com 1.10,2013-09-08 19:29:00,
2013-09-08 15:44:00,86.4,75.0,29.86,ENE,59,6.0,-999.0,69,-99.99,,,0.01,441,weatherlink.com 1.10,2013-09-08 19:44:00,
2013-09-08 15:59:00,86.3,75.0,29.86,East,80,4.0,-999.0,69,-99.99,,,0.01,160,weatherlink.com 1.10,2013-09-08 19:59:00,
2013-09-08 16:14:00,85.4,75.0,29.86,East,92,1.0,-999.0,71,-99.99,,,0.01,160,weatherlink.com 1.10,2013-09-08 20:14:00,
2013-09-08 16:29:00,85.2,76.0,29.86,ESE,104,4.0,-999.0,73,-99.99,,,0.01,243,weatherlink.com 1.10,2013-09-08 20:29:00,
2013-09-08 16:44:00,84.9,76.0,29.86,East,87,0.0,-999.0,74,-99.99,,,0.01,151,weatherlink.com 1.10,2013-09-08 20:44:00,
2013-09-08 16:59:00,84.7,76.0,29.86,NNE,17,2.0,-999.0,75,-99.99,,,0.01,91,weatherlink.com 1.10,2013-09-08 20:59:00,
2013-09-08 17:14:00,84.2,75.0,29.85,ENE,63,0.0,-999.0,74,-99.99,,,0.01,42,weatherlink.com 1.10,2013-09-08 21:14:00,
2013-09-08 17:29:00,84.0,75.0,29.86,East,82,0.0,-999.0,74,-99.99,,,0.01,35,weatherlink.com 1.10,2013-09-08 21:29:00,
2013-09-08 17:44:00,83.9,76.0,29.86,NE,36,3.0,-999.0,76,-99.99,,,0.01,21,weatherlink.com 1.10,2013-09-08 21:44:00,
2013-09-08 17:59:00,83.6,77.0,29.87,ENE,67,0.0,-999.0,79,-99.99,,,0.01,14,weatherlink.com 1.10,2013-09-08 21:59:00,
2013-09-08 18:14:00,82.9,76.0,29.86,ENE,73,1.0,-999.0,80,-99.99,,,0.01,12,weatherlink.com 1.10,2013-09-08 22:14:00,
2013-09-08 18:29:00,82.3,76.0,29.86,East,86,1.0,-999.0,80,-99.99,,,0.01,18,weatherlink.com 1.10,2013-09-08 22:29:00,
2013-09-08 18:44:00,82.2,76.0,29.86,ENE,66,3.0,-999.0,80,-99.99,,,0.01,23,weatherlink.com 1.10,2013-09-08 22:44:00,
2013-09-08 18:59:00,82.1,75.0,29.86,ENE,77,0.0,-999.0,80,-99.99,,,0.01,14,weatherlink.com 1.10,2013-09-08 22:59:00,
2013-09-08 19:14:00,82.0,75.0,29.87,ENE,76,0.0,-999.0,80,-99.99,,,0.01,0,weatherlink.com 1.10,2013-09-08 23:14:00,
2013-09-08 19:29:00,82.0,75.0,29.88,ENE,75,0.0,-999.0,80,-99.99,,,0.01,0,weatherlink.com 1.10,2013-09-08 23:29:00,
2013-09-08 19:44:00,81.8,75.0,29.88,ENE,74,0.0,-999.0,80,-99.99,,,0.01,0,weatherlink.com 1.10,2013-09-08 23:44:00,
2013-09-08 19:59:00,81.6,75.0,29.88,ENE,76,0.0,-999.0,80,-99.99,,,0.01,0,weatherlink.com 1.10,2013-09-08 23:59:00,
2013-09-08 20:14:00,81.5,75.0,29.89,ENE,76,0.0,-999.0,80,-99.99,,,0.01,0,weatherlink.com 1.10,2013-09-09 00:14:00,
2013-09-08 20:29:00,81.4,75.0,29.90,ENE,76,0.0,-999.0,80,-99.99,,,0.01,0,weatherlink.com 1.10,2013-09-09 00:29:00,
2013-09-08 20:44:00,81.3,75.0,29.90,ENE,76,0.0,-999.0,80,-99.99,,,0.01,0,weatherlink.com 1.10,2013-09-09 00:44:00,
2013-09-08 20:59:00,81.1,74.0,29.91,ENE,76,0.0,-999.0,80,-99.99,,,0.01,0,weatherlink.com 1.10,2013-09-09 00:59:00,
2013-09-08 21:14:00,81.1,74.0,29.92,ENE,76,0.0,-999.0,79,-99.99,,,0.01,0,weatherlink.com 1.10,2013-09-09 01:14:00,
2013-09-08 21:29:00,81.2,74.0,29.92,ENE,76,0.0,-999.0,79,-99.99,,,0.01,0,weatherlink.com 1.10,2013-09-09 01:29:00,
2013-09-08 21:44:00,81.2,74.0,29.92,ENE,76,0.0,-999.0,79,-99.99,,,0.01,0,weatherlink.com 1.10,2013-09-09 01:44:00,
2013-09-08 21:59:00,81.2,75.0,29.93,ENE,76,0.0,-999.0,80,-99.99,,,0.01,0,weatherlink.com 1.10,2013-09-09 01:59:00,
2013-09-08 22:14:00,81.2,74.0,29.93,ENE,76,0.0,-999.0,79,-99.99,,,0.01,0,weatherlink.com 1.10,2013-09-09 02:14:00,
2013-09-08 22:29:00,81.4,74.0,29.94,ENE,74,0.0,-999.0,79,-99.99,,,0.01,0,weatherlink.com 1.10,2013-09-09 02:29:00,
2013-09-08 22:44:00,81.6,75.0,29.94,ENE,75,0.0,-999.0,79,-99.99,,,0.01,0,weatherlink.com 1.10,2013-09-09 02:44:00,
2013-09-08 22:59:00,81.6,75.0,29.94,ENE,75,0.0,-999.0,79,-99.99,,,0.01,0,weatherlink.com 1.10,2013-09-09 02:59:00,
2013-09-08 23:14:00,81.5,74.0,29.94,ENE,75,0.0,-999.0,78,-99.99,,,0.01,0,weatherlink.com 1.10,2013-09-09 03:14:00,
2013-09-08 23:29:00,81.3,74.0,29.94,ENE,75,0.0,-999.0,78,-99.99,,,0.01,0,weatherlink.com 1.10,2013-09-09 03:29:00,
2013-09-08 23:44:00,81.3,74.0,29.94,ENE,75,0.0,-999.0,78,-99.99,,,0.01,0,weatherlink.com 1.10,2013-09-09 03:44:00,
2013-09-08 23:59:00,81.0,74.0,29.94,ENE,75,0.0,-999.0,78,-99.99,,,0.00,0,weatherlink.com 1.10,2013-09-09 03:59:00,